Flag for U.S.A. Weather past 2 weeks in Shiprock, New Mexico, U.S.A.

Now
66 °F

Partly sunny.


Feels Like: 66 °F
Forecast: 47 / 80 °F
Wind: 9 mph from Southwest

Location: Four Corners Regional Airport

Current Time: May 26, 2015 at 8:38:30 PM

Latest Report: May 26, 2015 at 7:53 PM


Visibility: 10 mi

Pressure: 29.96 "Hg

Humidity: 36%

Dew point: 38 °F

Location of ShiprockLocation

Historic Weather in Shiprock — Graph

°F

Shiprock temperature yesterday

Maximum temperature yesterday: 65 °F (at 3:53 PM)
Minimum temperature yesterday: 45 °F (at 5:53 AM)
Average temperature yesterday: 54 °F

Past Weeks' High & Low Weather Summary

 TemperatureHumidityPressure
High75 °F (May 14, 3:53 PM)97% (May 16, 12:53 AM)30.07 "Hg (May 16, 12:53 AM)
Low38 °F (May 17, 4:53 AM)9% (May 20, 5:53 PM)29.63 "Hg (May 14, 6:53 PM)
Average56 °F53%29.90 "Hg
* Reported May 11 6:53 PM — May 26 6:53 PM, Shiprock, Weather by CustomWeather, © 2015

Note: Actual official high and low records may vary slightly from our data, if they occured in-between our weather recording intervals... More about our weather records

Advertising

Shiprock weather history for previous 24 hours

 ConditionsComfort  
Time TempWeatherWind HumidityBarometerVisibility
6:53 PM
Tue, May 26
70 °FPartly sunny.12 mph27%29.92 "Hg10 mi
5:53 PM72 °FSunny.7 mph25%29.92 "Hg10 mi
4:53 PM73 °FScattered clouds.7 mph25%29.93 "Hg10 mi
3:53 PM74 °FSunny.10 mph23%29.94 "Hg10 mi
2:53 PM74 °FPassing clouds.9 mph27%29.96 "Hg10 mi
1:53 PM69 °FPassing clouds.5 mph32%29.98 "Hg10 mi
12:53 PM69 °FSunny.8 mph35%30.00 "Hg10 mi
11:53 AM67 °FSunny.No wind37%30.00 "Hg10 mi
10:53 AM63 °FSunny.7 mph48%30.03 "Hg10 mi
9:53 AM59 °FPassing clouds.7 mph58%30.04 "Hg10 mi
8:53 AM54 °FSunny.9 mph67%30.04 "Hg10 mi
7:53 AM50 °FSunny.8 mph71%30.04 "Hg10 mi
6:53 AM45 °FClear.10 mph82%30.05 "Hg10 mi
5:53 AM44 °FClear.10 mph85%30.03 "Hg10 mi
4:53 AM45 °FClear.7 mph86%30.02 "Hg10 mi
3:53 AM45 °FClear.8 mph90%29.98 "Hg10 mi
2:53 AM42 °FClear.6 mph92%29.98 "Hg10 mi
1:53 AM45 °FClear.6 mph90%29.98 "Hg10 mi
12:53 AM46 °FClear.3 mph86%29.99 "Hg10 mi
11:53 PM
Mon, May 25
52 °FClear.No wind72%29.96 "Hg10 mi
10:53 PM51 °FClear.5 mph74%29.98 "Hg10 mi
9:53 PM52 °FClear.5 mph72%29.97 "Hg10 mi
8:53 PM53 °FSunny.5 mph66%29.94 "Hg10 mi
Weather by CustomWeather, © 2015

See weather overviewHow to use our weather pages